Location: Eschentzwiller
(47.7125°N, 7.3981°E)
Time: 04:25:00
(UTC+00:00)

Cosmos 2297 Rocket - Pass Details

Date: 27 October 2020
Orbit: 838 x 844 km, 71.0° (Epoch: 01 December)

Event Time Altitude Azimuth Distance (km) Brightness Sun altitude
Rises 18:00:52 0° 330° (NNW) 3,414 5.8 -17.5°
Reaches altitude 10° 18:03:21 10° 327° (NNW) 2,475 5.1 -17.9°
Maximum altitude 18:08:56 61° 248° (WSW) 956 2.7 -18.8°
Drops below altitude 10° 18:14:29 10° 169° (S) 2,457 4.5 -19.8°
Sets 18:16:56 0° 166° (SSE) 3,387 5.2 -20.2°
